Date,TemperatureHighF,TemperatureAvgF,TemperatureLowF,DewpointHighF,DewpointAvgF,DewpointLowF,HumidityHigh,HumidityAvg,HumidityLow,PressureMaxIn,PressureMinIn,WindSpeedMaxMPH,WindSpeedAvgMPH,GustSpeedMaxMPH,PrecipitationSumIn
2013-1-1,43.7,31.4,23.2,28.8,21.5,13.1,92,68,43,30.43,30.30,10,2,13,0.01
2013-1-2,53.1,36.5,26.1,16.0,11.1,7.2,57,37,16,30.42,30.20,13,4,16,0.00
2013-1-3,45.0,34.3,28.0,10.6,8.3,5.2,45,34,21,30.44,30.27,14,4,15,0.00
2013-1-4,49.5,35.0,25.0,11.8,7.6,2.1,47,33,15,30.48,30.35,8,3,10,0.00
2013-1-5,52.2,36.6,24.4,12.4,7.4,0.7,46,30,18,30.51,30.26,8,2,9,0.00
2013-1-6,56.7,40.7,31.8,18.7,13.5,5.5,46,33,18,30.26,29.90,15,2,18,0.00
2013-1-7,55.8,41.3,30.9,20.7,17.1,13.1,57,39,22,29.96,29.83,11,3,13,0.00
2013-1-8,61.9,44.1,30.9,20.7,14.3,7.7,42,31,15,30.16,29.94,9,2,9,0.00
2013-1-9,64.0,48.9,37.9,24.4,20.1,13.3,51,33,18,30.23,29.96,11,2,13,0.00
2013-1-10,53.2,43.2,35.2,30.0,21.6,18.0,64,43,28,29.96,29.66,33,7,38,0.00
2013-1-11,41.4,32.0,23.7,21.2,5.7,-7.8,56,35,14,30.12,29.82,24,6,34,0.00
2013-1-12,37.4,26.2,18.0,7.9,3.7,-1.5,52,38,25,30.24,30.09,21,3,21,0.00
2013-1-13,36.9,25.5,15.6,3.7,2.1,0.5,52,37,23,30.27,29.89,21,3,22,0.00
2013-1-14,36.7,24.5,15.6,6.8,2.5,-5.8,61,39,25,30.19,29.91,11,2,11,0.00
2013-1-15,45.3,28.3,15.4,6.6,-0.7,-7.1,40,29,16,30.33,30.19,9,2,9,0.00
2013-1-16,58.5,38.8,26.6,18.7,13.1,6.1,50,36,20,30.34,30.13,10,2,10,0.00
2013-1-17,60.3,43.7,34.2,18.7,16.3,14.4,46,34,19,30.21,30.05,10,4,11,0.00
2013-1-18,63.0,44.3,33.1,19.6,16.8,15.3,49,35,18,30.16,29.99,10,3,11,0.00
2013-1-19,65.5,46.5,34.9,21.6,16.7,7.7,49,32,15,30.16,30.01,11,3,12,0.00
2013-1-20,63.9,45.9,34.2,15.4,9.3,4.5,31,23,12,30.08,29.91,10,3,10,0.00
2013-1-21,66.0,48.9,37.0,15.3,7.5,-0.2,32,20,8,30.06,29.92,9,4,12,0.00
2013-1-22,69.6,50.6,36.9,15.1,8.1,-2.7,28,19,9,30.18,29.95,9,3,10,0.00
2013-1-23,63.3,52.4,41.5,22.6,17.0,8.6,35,25,16,30.24,30.13,7,1,8,0.00
2013-1-24,54.0,49.6,46.2,45.5,34.2,20.1,92,60,28,30.26,30.11,14,1,16,0.01
2013-1-25,62.2,51.6,45.1,48.7,45.6,42.4,95,81,58,30.25,30.06,7,1,7,0.26
2013-1-26,51.3,48.9,46.8,50.0,47.8,45.7,98,96,92,30.10,29.86,13,2,17,1.13
2013-1-27,54.1,49.1,43.5,50.9,44.3,34.7,98,84,64,30.03,29.91,24,5,26,0.19
2013-1-28,46.9,40.1,30.0,40.1,30.4,21.4,93,70,41,30.03,29.85,32,7,32,0.10
2013-1-29,47.1,35.3,23.2,26.1,20.4,13.5,82,56,36,30.32,30.03,22,5,22,0.01
2013-1-30,51.8,39.6,28.2,27.5,22.9,14.0,67,52,36,30.44,30.30,16,4,19,0.00
2013-1-31,62.4,45.3,32.7,34.9,27.2,19.4,78,52,21,30.37,30.22,8,2,9,0.00
2013-2-1,62.4,47.3,35.4,32.0,27.0,20.3,67,47,28,30.32,30.21,8,2,9,0.00
2013-2-2,68.5,51.9,40.1,29.7,23.8,11.3,58,36,12,30.37,30.20,8,2,9,0.00
2013-2-3,56.7,49.2,43.3,43.2,33.1,25.7,81,55,41,30.23,30.01,8,2,8,0.01
2013-2-4,65.8,50.5,39.6,36.3,29.4,18.5,72,47,22,30.14,30.00,10,3,10,0.00
2013-2-5,66.4,50.9,39.0,30.9,26.0,19.6,55,40,17,30.09,29.94,22,-11,23,0.00
2013-2-6,59.4,48.9,39.6,38.8,33.3,29.8,73,56,41,30.08,29.92,15,2,19,0.00
2013-2-7,62.4,49.3,37.8,38.3,32.9,27.9,80,56,28,30.17,29.96,24,4,25,0.00
2013-2-8,53.6,45.5,36.7,35.2,27.1,9.5,71,49,25,29.96,29.73,36,8,44,0.00
2013-2-9,38.8,33.3,27.3,33.8,27.0,18.9,93,79,49,30.12,29.73,24,4,24,0.11
2013-2-10,40.6,32.0,27.0,31.8,27.8,23.5,95,85,62,30.13,30.02,18,2,21,0.01
2013-2-11,43.7,31.7,25.0,33.8,25.9,20.1,95,81,47,30.28,30.12,11,2,11,0.09
2013-2-12,48.0,34.2,22.5,23.4,18.7,14.4,86,57,27,30.43,30.28,9,2,11,0.01
2013-2-13,58.1,41.4,28.0,23.4,18.9,15.3,59,42,23,30.35,30.19,9,3,11,0.00
2013-2-14,61.5,45.4,32.2,27.3,21.7,18.9,60,41,22,30.26,30.13,13,3,13,0.00
2013-2-15,66.4,49.7,39.4,21.0,14.2,3.9,40,26,10,30.38,30.26,14,4,16,0.00
2013-2-16,70.9,51.6,36.7,18.3,10.5,-0.0,32,21,7,30.38,30.05,9,2,10,0.00
2013-2-17,66.7,50.6,38.7,20.8,13.7,4.6,38,24,9,30.05,29.78,21,4,23,0.00
2013-2-18,63.3,48.7,36.3,20.5,15.8,12.9,41,28,15,30.07,29.92,21,0,23,0.00
2013-2-19,58.1,46.2,36.5,25.9,18.0,10.0,50,34,16,29.95,29.63,25,5,32,0.00
2013-2-20,42.4,34.5,29.8,33.6,30.5,24.8,94,86,50,29.95,29.56,22,4,24,0.08
2013-2-21,44.8,33.2,29.8,35.8,30.6,28.0,96,91,62,30.10,29.93,15,2,18,0.08
2013-2-22,51.1,36.2,24.3,30.4,23.1,16.3,95,64,25,30.13,30.01,12,3,12,0.02
2013-2-23,56.7,40.3,27.5,27.3,22.0,17.2,67,49,29,30.13,29.73,25,5,26,0.00
2013-2-24,46.0,37.5,28.0,22.6,11.1,4.1,77,36,19,30.07,29.80,29,9,30,0.00
2013-2-25,57.2,41.2,27.5,15.4,11.9,7.5,45,31,16,30.19,29.97,20,4,22,0.00
2013-2-26,54.5,41.0,27.9,18.0,8.8,-0.6,56,30,11,30.12,29.93,23,6,27,0.00
2013-2-27,55.6,40.7,29.1,8.8,4.0,-0.8,35,22,11,30.25,30.12,14,4,14,0.00
2013-2-28,63.0,46.6,34.0,7.9,2.2,-4.7,23,16,9,30.32,30.21,13,4,13,0.00
2013-3-1,71.1,49.5,36.1,23.5,15.0,4.6,42,26,16,30.34,30.18,11,2,12,0.00
2013-3-3,63.0,56.5,47.5,31.5,26.9,23.2,41,32,24,29.91,29.79,17,3,17,0.00
2013-3-4,69.3,55.4,45.7,30.6,26.6,21.4,50,34,20,29.97,29.76,19,4,19,0.00
2013-3-5,68.9,53.7,41.5,32.7,27.9,20.3,64,40,17,30.05,29.90,18,4,19,0.00
2013-3-6,69.6,54.8,42.6,32.9,28.1,25.3,56,37,22,29.94,29.77,22,4,26,0.00
2013-3-7,66.7,53.8,42.1,32.2,25.9,19.6,54,36,17,29.94,29.76,28,5,28,0.00
2013-3-8,54.1,40.5,32.5,41.5,34.6,25.2,96,83,35,29.96,29.67,39,5,39,0.76
2013-3-9,41.2,35.6,32.0,39.6,34.4,30.9,97,96,90,30.23,29.95,10,2,11,0.14
2013-3-10,60.6,44.5,31.5,41.9,32.0,20.8,97,67,31,30.33,30.20,11,2,13,0.01
2013-3-11,67.1,50.7,36.1,32.7,26.8,20.3,57,41,23,30.27,30.06,11,3,12,0.00
2013-3-12,74.1,57.3,42.4,32.5,27.1,21.0,50,34,15,30.18,30.05,10,3,11,0.00
2013-3-13,78.6,61.8,46.9,32.9,27.4,20.8,45,29,12,30.22,30.08,10,3,11,0.00
2013-3-14,83.5,66.7,52.9,32.5,26.2,20.3,38,23,10,30.18,30.00,13,4,13,0.00
2013-3-15,82.4,64.9,50.5,34.3,30.0,26.8,43,28,14,30.04,29.85,19,3,23,0.00
2013-3-16,79.0,63.8,53.4,35.2,29.2,20.3,44,29,12,29.88,29.68,25,4,28,0.00
2013-3-17,77.5,66.1,50.9,36.3,9.8,-10.7,49,15,3,29.86,29.73,23,6,26,0.00
2013-3-18,76.5,59.9,45.7,27.5,16.5,3.7,33,19,9,29.96,29.85,26,4,28,0.00
2013-3-19,73.9,60.4,50.7,33.4,28.7,20.8,48,31,14,30.04,29.88,25,4,32,0.00
2013-3-20,71.1,58.1,48.6,34.2,30.7,26.8,52,36,21,30.05,29.81,23,4,27,0.00
2013-3-21,78.3,61.8,50.0,35.2,23.8,-2.9,49,28,6,29.81,29.64,21,4,24,0.00
2013-3-22,71.2,57.5,43.3,30.7,10.5,-24.7,28,17,3,29.78,29.63,23,4,28,0.00
2013-3-23,64.2,53.0,42.6,3.9,-3.1,-13.2,16,10,6,30.04,29.77,28,7,37,0.00
2013-3-24,69.6,53.1,36.3,15.1,6.0,-2.0,22,15,10,30.09,29.90,23,5,24,0.00
2013-3-25,73.9,57.2,40.6,18.7,11.6,4.3,25,17,10,30.06,29.90,23,4,24,0.00
2013-3-26,72.7,59.0,44.6,25.5,19.0,14.0,34,22,14,29.97,29.82,23,4,26,0.00
2013-3-27,72.7,59.3,47.3,25.5,20.1,14.4,35,23,11,29.96,29.85,22,4,25,0.00
2013-3-28,73.2,60.2,46.2,29.1,23.7,18.1,41,25,16,30.04,29.95,22,5,25,0.00
2013-3-29,79.2,63.8,48.4,30.2,25.4,20.3,43,25,12,30.10,29.96,24,4,25,0.00
2013-3-30,74.3,61.1,51.6,30.9,27.3,21.6,40,28,18,30.06,29.94,15,3,19,0.00
2013-3-31,78.4,63.4,48.6,34.0,29.0,21.6,47,29,13,30.02,29.85,21,4,27,0.00
2013-4-1,73.9,60.9,49.3,35.2,26.4,14.5,49,29,13,29.91,29.81,25,5,27,0.00
2013-4-2,73.8,58.4,42.6,28.4,23.9,19.0,41,28,15,29.95,29.82,29,5,29,0.00
2013-4-3,78.1,62.2,47.3,32.7,26.6,19.6,50,28,12,30.05,29.92,13,3,15,0.00
2013-4-4,79.7,63.7,48.4,28.6,23.5,20.3,36,23,12,30.07,29.91,19,5,23,0.00
2013-4-5,79.5,66.0,52.9,33.8,25.8,16.7,35,23,10,29.98,29.86,25,5,28,0.00
2013-4-6,80.1,63.8,49.6,33.1,28.4,24.6,42,27,17,30.07,29.94,26,5,27,0.00
2013-4-7,78.3,63.6,48.7,32.9,29.1,24.8,45,29,15,30.02,29.81,22,4,23,0.00
2013-4-8,62.2,53.7,44.1,39.0,32.0,20.5,70,44,28,29.81,29.46,41,11,46,0.03
2013-4-9,58.8,48.1,42.4,32.7,26.5,18.7,66,44,26,30.10,29.62,26,8,28,0.00
2013-4-10,66.0,52.0,39.6,26.8,19.9,11.7,57,31,13,30.25,30.09,17,4,22,0.00
2013-4-11,74.8,57.5,41.7,27.5,22.0,18.0,42,26,14,30.17,29.91,21,4,24,0.00
2013-4-12,79.5,62.9,46.2,26.8,22.0,14.5,39,23,10,30.00,29.86,21,3,23,0.00
2013-4-13,80.2,66.2,49.3,29.3,23.9,19.2,37,21,12,29.96,29.76,24,5,27,0.00
2013-4-14,75.0,64.0,50.5,32.5,28.8,24.3,39,27,18,29.82,29.70,32,9,33,0.00
2013-4-15,71.8,60.5,48.9,37.8,34.0,28.4,53,38,26,29.82,29.74,30,8,34,0.00
2013-4-16,65.7,56.3,46.0,39.4,29.1,10.4,62,38,16,29.91,29.77,37,12,44,0.00
2013-4-17,60.1,49.1,39.6,27.1,16.1,5.4,53,29,14,30.27,29.91,24,7,25,0.00
2013-4-18,65.1,49.7,36.1,10.6,6.4,0.9,33,19,8,30.41,30.27,15,5,19,0.00
2013-4-19,75.4,57.3,37.2,11.7,5.2,-1.3,24,13,5,30.44,30.11,24,4,27,0.00
2013-4-20,79.9,63.4,45.0,19.6,11.0,-5.1,26,14,5,30.15,30.00,24,5,25,0.00
2013-4-21,84.9,67.8,48.6,22.8,16.4,8.2,30,16,6,30.18,30.00,22,5,23,0.00
2013-4-22,84.9,69.1,52.5,23.5,18.9,13.5,24,15,8,30.06,29.84,27,4,30,0.00
2013-4-23,79.5,66.7,53.6,27.1,9.7,-22.9,29,13,3,30.01,29.84,24,5,25,0.00
2013-4-24,79.9,64.1,46.0,22.6,13.0,1.0,23,14,9,30.07,29.97,26,5,26,0.00
2013-4-25,74.5,63.1,51.3,32.2,25.8,16.3,39,25,12,30.16,29.96,28,7,29,0.00
2013-4-26,79.9,65.0,48.7,35.4,28.1,17.2,51,28,11,30.26,30.15,15,4,18,0.00
2013-4-27,87.3,70.1,52.0,26.2,12.9,-2.0,29,13,5,30.23,30.03,16,4,20,0.00
2013-4-28,90.3,73.3,54.0,18.5,9.3,-2.4,19,9,3,30.07,29.85,17,4,18,0.00
2013-4-29,93.6,76.2,58.1,24.8,16.8,10.4,23,12,5,29.93,29.73,29,6,29,0.00
2013-4-30,87.1,75.1,60.6,26.1,16.4,6.8,23,11,5,29.83,29.72,31,6,38,0.00
2013-5-1,88.0,71.6,55.6,26.6,12.6,-19.7,24,11,3,30.26,29.83,18,5,23,0.00
2013-5-2,78.3,61.6,46.4,13.1,3.2,-12.1,19,10,3,30.44,30.26,19,5,20,0.00
2013-5-3,83.7,66.0,48.7,16.7,9.0,-2.9,18,11,4,30.37,29.99,26,5,29,0.00
2013-5-4,83.5,68.0,51.8,21.7,13.8,-0.9,24,14,4,30.01,29.83,24,5,26,0.00
2013-5-5,76.5,66.3,55.2,33.3,21.5,13.3,36,18,13,30.01,29.91,26,7,29,0.00
2013-5-6,73.2,61.9,54.1,40.6,35.2,20.8,50,37,24,30.10,29.99,25,8,30,0.00
2013-5-7,69.3,58.6,45.9,43.7,37.2,31.1,69,47,25,30.14,30.00,29,8,31,0.00
2013-5-8,71.1,58.5,43.2,37.0,32.5,27.3,66,40,23,30.25,30.13,23,4,23,0.00
2013-5-9,75.9,61.3,49.5,47.3,32.9,27.1,61,35,20,30.19,30.06,22,4,27,0.04
2013-5-10,84.6,67.1,50.2,39.0,32.2,23.4,54,31,11,30.27,30.11,25,4,28,0.00
2013-5-11,85.1,70.4,56.1,39.6,31.7,24.6,44,26,12,30.30,30.19,16,4,21,0.00
2013-5-12,91.2,74.2,55.8,33.8,27.1,20.8,35,19,9,30.32,30.09,13,3,15,0.00
2013-5-13,95.0,78.0,60.4,32.2,25.7,17.4,28,16,6,30.22,30.00,24,4,24,0.00
2013-5-14,93.0,77.5,61.9,34.9,29.1,24.8,32,18,10,30.08,29.91,24,5,27,0.00
2013-5-15,88.5,76.0,61.9,35.4,21.7,6.4,30,15,6,30.02,29.90,27,5,34,0.00
2013-5-16,87.4,73.5,57.7,33.4,18.5,9.0,20,13,7,30.04,29.88,31,6,32,0.00
2013-5-17,80.1,70.7,59.5,31.8,26.8,22.6,28,20,14,29.99,29.91,27,7,31,0.00
2013-5-18,81.9,69.7,56.3,37.6,30.9,23.5,39,25,12,30.05,29.94,26,6,29,0.00
2013-5-19,85.8,71.6,55.4,36.1,27.7,20.3,38,21,10,30.04,29.87,23,5,27,0.00
2013-5-20,81.9,69.3,55.6,30.0,21.0,6.4,29,17,6,30.06,29.96,25,7,28,0.00
2013-5-21,90.9,73.2,55.6,32.9,25.5,16.3,35,19,8,30.08,29.88,23,4,27,0.00
2013-5-22,86.9,74.5,58.5,30.2,22.1,15.8,22,14,9,29.90,29.76,30,6,32,0.00
2013-5-23,85.1,73.3,58.6,30.6,23.4,15.8,27,16,8,29.95,29.82,30,8,32,0.00
2013-5-24,86.4,72.2,57.2,32.5,21.9,8.2,30,16,6,30.06,29.94,25,6,29,0.00
2013-5-25,86.4,72.7,58.3,25.5,18.2,9.7,25,14,6,30.07,29.98,24,5,28,0.00
2013-5-26,85.1,71.3,56.1,28.6,18.1,12.7,23,14,7,30.08,29.98,24,6,25,0.00
2013-5-27,86.2,70.1,57.7,28.9,23.2,16.0,31,18,10,30.04,29.89,25,4,25,0.00
2013-5-28,83.7,70.7,55.6,34.2,29.2,21.9,35,22,14,29.91,29.73,26,5,31,0.00
2013-5-29,89.2,74.6,57.9,38.7,32.1,25.3,42,23,11,29.89,29.76,23,6,26,0.00
2013-5-30,90.0,76.2,60.1,44.4,37.7,30.0,38,25,15,29.96,29.85,24,6,27,0.00
2013-5-31,96.8,80.6,63.0,46.6,41.1,30.6,46,27,10,30.02,29.86,22,5,24,0.00
2013-6-1,98.8,83.0,66.9,36.1,22.0,11.8,26,11,5,30.03,29.85,18,4,20,0.00
2013-6-2,96.1,83.3,68.0,34.7,28.3,22.1,23,14,8,29.91,29.78,27,6,33,0.00
2013-6-3,94.1,81.8,66.7,33.4,27.5,20.7,27,15,8,29.99,29.87,25,7,26,0.00
2013-6-4,92.8,80.0,63.3,30.4,23.6,16.5,23,13,7,30.05,29.95,23,6,29,0.00
2013-6-5,99.3,82.0,63.7,29.5,24.8,19.0,23,13,6,30.08,29.91,24,4,26,0.00
2013-6-6,102.9,86.2,67.1,33.1,23.0,10.9,24,11,4,30.01,29.85,20,4,24,0.00
2013-6-7,103.6,87.6,70.2,29.5,21.1,7.3,19,10,4,29.96,29.79,20,4,20,0.00
2013-6-8,104.2,87.5,71.1,29.8,24.5,16.0,20,11,5,29.97,29.84,29,7,29,0.00
2013-6-9,103.5,86.8,70.0,34.9,25.9,14.7,22,12,5,30.04,29.90,27,6,28,0.00
2013-6-10,98.8,84.1,69.3,32.4,16.1,-7.6,20,9,2,30.05,29.93,26,5,30,0.00
2013-6-11,101.7,85.6,67.6,32.9,23.5,6.4,22,11,4,30.08,29.98,20,5,26,0.00
2013-6-12,103.3,87.2,68.2,32.5,26.4,18.1,21,12,5,30.10,29.97,24,5,29,0.00
2013-6-13,99.0,84.7,70.9,42.6,34.2,28.2,24,17,9,30.06,29.94,31,6,31,0.00
2013-6-14,98.4,84.3,68.5,41.5,33.8,28.9,26,17,9,30.04,29.89,22,5,24,0.00
2013-6-15,95.2,82.9,67.8,39.6,34.0,28.0,30,18,12,30.04,29.94,25,6,29,0.00
2013-6-16,96.8,83.4,66.9,41.5,29.5,21.6,26,15,8,30.12,30.00,25,6,29,0.00
2013-6-17,97.5,83.0,66.6,32.4,20.5,0.7,23,11,3,30.11,29.96,25,5,31,0.00
2013-6-18,95.5,81.5,64.6,23.7,14.9,3.4,17,9,5,30.05,29.91,25,5,28,0.00
2013-6-19,94.6,80.5,64.2,28.0,18.0,10.6,16,10,5,29.95,29.86,26,5,30,0.00
2013-6-20,93.0,79.9,64.4,27.3,22.1,14.7,19,12,6,30.00,29.92,25,5,27,0.00
2013-6-21,92.5,80.5,65.1,32.2,23.4,12.4,26,14,6,30.04,29.94,24,6,29,0.00
2013-6-22,92.8,80.2,64.4,33.8,25.1,16.9,22,14,9,30.05,29.91,29,6,29,0.00
2013-6-23,92.8,79.3,63.5,29.3,22.4,12.7,23,13,6,30.00,29.86,30,6,30,0.00
2013-6-24,89.4,77.8,65.5,35.1,27.8,21.4,26,17,9,30.04,29.90,24,6,28,0.00
2013-6-25,93.6,79.9,64.2,35.2,29.4,23.4,30,17,9,30.14,30.03,26,6,27,0.00
2013-6-26,98.4,83.1,65.8,36.3,26.7,14.0,22,14,5,30.20,30.07,24,6,25,0.00
2013-6-27,106.5,87.9,68.5,39.2,31.9,9.0,28,15,3,30.24,30.04,16,4,21,0.00
2013-6-28,115.0,91.1,74.8,46.2,33.7,20.3,22,14,4,30.09,29.93,32,4,37,0.00
2013-6-29,106.9,92.2,78.4,43.7,36.9,31.6,26,15,8,30.04,29.88,26,4,28,0.00
2013-6-30,111.4,90.0,79.0,46.4,39.8,32.4,27,18,8,30.07,29.93,28,4,32,0.00
2013-7-1,107.8,89.0,75.4,62.4,48.7,38.1,45,27,10,30.15,29.98,35,6,39,0.02
2013-7-2,102.4,82.1,70.0,59.9,53.2,45.0,70,39,21,30.22,30.05,21,6,33,0.44
2013-7-3,95.4,80.1,66.0,60.3,54.4,45.3,70,43,23,30.22,30.03,25,3,31,0.00
2013-7-4,103.1,86.4,71.4,55.8,50.7,46.4,53,32,16,30.11,29.93,23,4,24,0.00
2013-7-5,92.5,83.5,76.3,57.2,53.2,49.6,48,36,26,30.09,29.98,24,5,24,0.00
2013-7-6,97.9,81.0,72.0,64.6,53.7,50.2,59,40,23,30.11,29.99,19,3,22,0.00
2013-7-7,98.8,83.4,69.1,72.0,53.2,40.6,75,38,19,30.15,30.01,19,4,23,0.11
2013-7-8,103.6,86.9,71.4,57.2,49.2,38.1,54,30,13,30.20,30.06,16,3,20,0.00
2013-7-9,103.6,88.5,72.7,56.8,48.0,34.3,42,26,10,30.27,30.07,19,4,24,0.00
2013-7-10,101.7,82.9,75.0,67.8,57.6,42.4,68,44,22,30.19,30.05,27,4,30,0.02
2013-7-11,90.9,79.0,71.1,63.5,59.8,57.2,65,53,34,30.22,30.11,24,3,30,0.00
2013-7-12,86.4,72.2,63.7,70.2,60.9,57.2,91,69,38,30.28,30.16,18,2,23,0.10
2013-7-13,92.1,77.1,63.3,67.5,58.1,51.3,85,56,27,30.32,30.19,13,2,14,0.02
2013-7-14,99.7,82.4,71.4,63.0,54.6,49.1,61,40,19,30.25,30.08,24,4,31,0.00
2013-7-15,91.6,80.5,71.2,58.1,54.9,51.6,55,42,28,30.16,30.04,21,3,22,0.00
2013-7-16,87.3,74.0,64.0,64.4,59.9,55.9,96,64,40,30.34,30.13,23,2,29,1.91
2013-7-17,90.9,73.1,62.1,69.4,63.4,58.6,96,74,35,30.40,30.30,18,2,19,0.02
2013-7-18,95.5,78.6,67.1,65.5,60.2,52.7,83,56,30,30.34,30.16,19,3,22,0.00
2013-7-19,96.6,79.4,68.4,69.4,61.1,54.9,88,56,28,30.24,30.06,16,3,21,0.08
2013-7-20,94.8,76.4,66.6,67.5,62.3,55.6,94,66,29,30.20,30.03,21,3,28,0.12
2013-7-21,84.6,72.6,66.4,68.4,64.4,60.8,93,77,47,30.27,30.09,22,2,24,0.01
2013-7-22,89.4,74.5,65.7,66.6,63.3,59.2,89,70,37,30.30,30.21,13,2,17,0.01
2013-7-23,92.8,76.7,65.8,72.1,62.6,58.1,88,64,33,30.31,30.15,15,2,26,0.27
2013-7-24,96.4,80.3,68.4,64.4,61.0,57.7,78,54,30,30.25,30.09,26,3,30,0.00
2013-7-25,93.4,79.1,70.2,65.3,62.9,59.9,79,59,37,30.30,30.14,16,3,19,0.00
2013-7-26,89.1,76.2,69.4,67.5,62.6,56.1,78,64,42,30.41,30.28,24,2,26,0.01
2013-7-27,83.8,73.4,65.5,71.2,62.4,57.9,88,69,49,30.36,30.16,18,2,22,0.20
2013-7-28,89.1,74.6,64.0,70.5,60.3,52.9,83,63,30,30.22,30.09,19,2,29,0.02
2013-7-29,93.7,79.9,65.1,61.9,53.2,43.7,74,44,22,30.30,30.17,20,4,23,0.00
2013-7-30,97.2,82.0,69.3,53.2,49.2,45.1,48,33,21,30.40,30.26,14,3,15,0.00
2013-7-31,101.7,82.6,70.3,66.2,52.8,45.5,60,37,17,30.35,30.17,14,2,19,0.08
2013-8-1,91.2,79.9,70.3,64.0,57.7,54.3,66,48,33,30.26,30.14,24,3,26,0.00
2013-8-2,95.9,82.2,70.0,61.0,54.2,44.4,66,41,19,30.23,30.12,22,4,26,0.00
2013-8-3,96.6,83.3,68.4,59.7,53.1,46.9,68,39,19,30.27,30.14,20,4,24,0.00
2013-8-4,95.2,83.5,73.2,55.6,49.9,44.1,48,32,20,30.24,30.14,19,3,22,0.00
2013-8-5,93.9,80.5,69.1,54.0,47.9,40.8,42,33,20,30.28,30.14,20,4,25,0.00
2013-8-6,79.3,70.6,64.2,66.0,58.1,47.8,94,68,40,30.32,30.18,16,2,19,0.20
2013-8-7,87.6,74.8,61.0,63.5,55.3,41.5,92,56,26,30.39,30.21,18,4,20,0.18
2013-8-8,93.7,80.1,65.5,52.0,39.9,30.4,46,27,11,30.27,30.12,21,5,23,0.00
2013-8-9,95.2,80.7,64.0,39.9,34.9,28.6,37,20,10,30.22,30.14,25,5,30,0.00
2013-8-10,93.0,79.9,66.9,40.1,33.9,27.0,35,20,11,30.29,30.19,23,5,26,0.00
2013-8-11,94.8,80.1,66.0,53.4,45.9,32.7,48,32,18,30.29,30.12,18,4,22,0.00
2013-8-12,97.9,82.1,65.8,53.8,45.7,36.5,56,31,14,30.25,30.12,20,5,23,0.00
2013-8-13,97.2,86.1,68.2,42.1,37.6,31.1,35,19,11,30.28,30.14,20,5,26,0.00
2013-8-14,100.0,84.2,69.4,43.9,39.4,33.4,33,21,12,30.25,30.11,17,4,21,0.00
2013-8-15,97.5,82.6,67.6,59.9,51.2,43.3,75,36,20,30.26,30.16,17,3,21,0.03
2013-8-16,99.3,84.9,71.8,54.3,49.6,45.3,48,31,18,30.27,30.15,21,3,24,0.00
2013-8-17,99.0,79.6,66.0,62.4,53.5,48.6,79,43,20,30.33,30.13,26,4,27,0.10
2013-8-18,96.3,77.0,65.8,65.7,55.9,50.5,84,50,22,30.30,30.20,23,4,24,0.33
2013-8-19,93.6,78.6,68.7,59.9,54.2,49.3,65,44,27,30.30,30.17,23,3,23,0.00
2013-8-20,97.5,81.6,65.7,57.6,51.7,46.9,59,38,21,30.26,30.09,23,3,26,0.01
2013-8-21,81.7,76.5,71.8,61.3,56.1,48.7,60,50,35,30.28,30.16,28,4,30,0.01
2013-8-22,91.4,78.5,67.6,64.2,55.2,50.2,82,47,26,30.31,30.13,28,2,28,0.06
2013-8-23,93.6,76.8,63.7,61.5,55.6,49.3,78,51,26,30.24,30.03,13,2,17,0.00
2013-8-24,81.1,71.7,64.4,66.0,56.5,50.7,94,61,36,30.25,30.09,12,2,17,0.12
2013-8-25,71.2,66.4,62.6,66.0,61.8,53.1,97,86,53,30.35,30.20,9,2,10,1.06
2013-8-26,84.6,72.4,63.0,69.4,64.0,60.3,93,76,53,30.34,30.15,9,2,10,0.03
2013-8-27,93.0,76.1,67.3,65.7,60.5,52.3,87,62,27,30.23,30.07,17,3,20,0.05
2013-8-28,93.6,79.8,67.3,61.3,57.6,53.8,71,49,27,30.20,30.09,16,3,18,0.00
2013-8-29,91.0,77.6,64.4,66.2,61.3,56.8,95,59,38,30.34,30.15,21,4,24,1.00
2013-8-30,84.9,70.7,64.0,69.3,65.3,62.4,97,85,50,30.34,30.21,18,2,20,0.24
2013-8-31,77.5,67.9,64.6,70.2,65.6,62.1,97,92,74,30.28,30.20,9,1,16,0.18
2013-9-1,88.9,73.8,63.3,67.6,63.3,58.8,93,72,45,30.27,30.11,20,2,23,0.00
2013-9-2,92.8,76.8,65.8,65.5,61.0,55.4,80,60,36,30.23,30.08,35,3,45,0.07
2013-9-3,95.7,78.5,68.0,63.1,58.3,54.9,75,53,28,30.22,30.09,17,3,20,0.07
2013-9-4,95.4,80.6,70.2,61.5,56.5,51.6,62,46,23,30.24,30.10,16,2,20,0.00
2013-9-5,95.7,80.5,67.6,61.0,53.4,43.5,70,43,17,30.25,30.12,14,2,15,0.00
2013-9-6,97.0,81.4,68.0,59.0,53.0,44.6,72,40,18,30.20,30.03,26,4,32,0.04
2013-9-7,86.4,75.2,67.5,62.6,58.8,53.1,77,58,39,30.20,30.09,11,2,11,0.01
2013-9-8,71.1,66.6,63.0,65.3,61.4,58.5,96,84,72,30.19,30.09,14,1,19,0.91
2013-9-9,66.7,63.1,59.9,64.9,60.8,57.4,97,92,83,30.17,30.00,9,2,9,0.57
2013-9-10,68.7,62.6,58.8,66.4,60.7,56.8,97,93,84,30.17,30.06,10,1,10,0.57
2013-9-11,77.0,64.4,58.6,65.1,58.5,51.1,98,82,52,30.26,30.09,16,2,18,0.40
2013-9-12,86.7,70.4,56.1,59.0,51.0,39.0,82,54,22,30.15,29.96,11,2,11,0.00
2013-9-13,88.2,74.1,62.1,58.3,53.6,50.5,69,50,32,29.99,29.80,12,3,15,0.00
2013-9-14,85.5,72.7,62.8,62.4,54.5,46.0,71,54,33,29.91,29.80,19,3,22,0.00
2013-9-15,90.7,74.7,61.3,58.5,52.7,46.4,70,48,23,30.00,29.89,12,3,13,0.00
2013-9-16,92.7,78.1,66.2,58.5,51.9,47.3,55,41,25,30.02,29.87,11,3,11,0.00
2013-9-17,89.8,77.6,67.3,61.7,55.4,45.7,69,48,30,29.94,29.76,20,4,22,0.00
2013-9-18,88.2,75.8,65.8,56.1,43.1,32.5,64,34,16,29.87,29.78,25,4,27,0.00
2013-9-19,89.6,74.4,61.3,46.8,38.9,32.4,47,29,15,29.95,29.86,15,4,15,0.00
2013-9-20,90.0,74.9,61.0,49.1,43.1,35.6,45,33,20,29.99,29.88,21,4,21,0.00
2013-9-21,86.9,74.4,63.5,55.8,49.8,45.7,63,43,31,29.98,29.78,21,4,24,0.00
2013-9-22,78.6,69.1,56.5,51.1,35.0,12.9,56,31,9,29.94,29.70,31,7,33,0.00
2013-9-23,85.6,67.7,52.9,41.0,33.6,24.8,48,30,12,30.11,29.94,9,3,10,0.00
2013-9-24,85.8,70.7,56.8,39.6,33.6,24.1,42,27,11,30.13,29.94,21,4,25,0.00
2013-9-25,80.4,68.6,55.8,46.8,37.8,30.9,45,33,22,29.94,29.74,25,5,28,0.00
2013-9-26,76.6,67.3,59.4,43.9,38.2,25.2,50,35,25,29.86,29.72,40,9,44,0.00
2013-9-27,74.5,62.0,52.7,27.7,21.0,13.1,36,22,10,30.18,29.86,17,5,19,0.00
2013-9-28,79.3,63.0,49.8,27.7,21.8,13.8,34,22,9,30.32,30.17,9,3,11,0.00
2013-9-29,83.5,66.8,50.5,41.7,31.0,22.8,39,27,16,30.30,30.12,20,3,20,0.00
2013-9-30,84.4,68.2,52.2,39.6,32.4,27.0,44,28,17,30.16,29.99,22,3,22,0.00
2013-10-1,84.6,68.0,52.9,39.2,31.6,27.9,40,27,15,30.12,30.00,26,5,27,0.00
2013-10-2,80.1,66.8,52.7,42.3,35.4,29.5,48,32,23,30.11,29.96,21,4,22,0.00
2013-10-3,79.3,65.0,53.2,41.4,35.4,28.0,53,35,18,30.01,29.83,25,4,31,0.00
2013-10-4,73.6,59.2,45.9,29.5,20.1,8.6,39,23,10,30.34,29.94,17,4,23,0.00
2013-10-5,71.8,57.0,46.6,25.9,20.4,14.9,31,24,15,30.45,30.31,19,4,19,0.00
2013-10-6,82.2,63.6,48.0,26.4,16.5,10.2,26,17,7,30.43,30.23,12,4,14,0.00
2013-10-7,82.6,66.6,51.4,28.6,20.9,9.1,29,18,13,30.26,30.06,12,3,14,0.00
2013-10-8,78.6,65.5,55.0,32.7,27.8,21.9,35,25,16,30.06,29.88,27,4,33,0.00
2013-10-9,69.4,61.0,52.5,43.3,35.2,27.7,55,39,24,29.88,29.77,33,10,37,0.00
2013-10-10,55.8,48.0,41.7,43.5,39.4,33.6,93,74,50,30.01,29.80,30,8,34,0.23
2013-10-13,65.7,58.5,54.0,35.1,31.5,28.0,47,36,29,30.15,30.03,21,5,24,0.00
2013-10-14,72.1,57.5,45.1,34.3,28.5,22.3,54,35,17,30.25,30.13,10,3,11,0.00
2013-10-15,72.1,57.0,43.5,32.2,26.3,18.1,50,32,18,30.18,30.03,9,3,11,0.00
2013-10-16,71.8,56.7,45.7,28.9,25.6,20.3,48,32,15,30.31,30.17,10,4,11,0.00
2013-10-17,73.4,56.7,41.4,29.1,25.1,21.0,48,31,15,30.30,30.10,17,2,20,0.00
2013-10-18,75.7,59.0,45.3,27.0,20.9,14.7,38,24,11,30.25,30.14,10,3,11,0.00
2013-10-19,78.4,61.3,48.6,24.3,17.8,12.4,29,19,10,30.28,30.12,13,3,13,0.00
2013-10-20,79.5,61.0,45.5,25.5,19.1,13.8,34,21,9,30.17,30.00,20,3,23,0.00
2013-10-21,78.3,61.5,46.9,26.4,21.0,16.9,32,22,11,30.24,30.10,10,2,10,0.00
2013-10-22,79.5,63.2,51.1,28.0,22.2,17.4,33,22,10,30.27,30.13,11,4,12,0.00
2013-10-23,81.9,65.6,52.5,29.3,23.7,19.9,34,21,11,30.19,30.04,12,4,12,0.00
2013-10-24,80.8,66.5,56.8,35.6,25.3,18.0,37,22,14,30.14,30.02,23,4,24,0.00
2013-10-25,79.0,63.2,50.7,36.0,26.9,18.7,43,26,11,30.27,30.14,11,3,12,0.00
2013-10-26,79.3,64.1,52.5,37.9,33.7,28.4,49,34,18,30.34,30.19,10,3,11,0.00
2013-10-27,78.1,63.6,52.0,37.0,31.3,20.7,49,32,14,30.21,29.88,20,5,22,0.00
2013-10-28,66.6,60.4,54.5,42.6,31.5,26.1,58,34,26,29.92,29.84,39,11,41,0.00
2013-10-29,58.8,51.8,44.1,44.4,36.7,30.0,68,57,37,30.12,29.89,32,7,35,0.00
2013-10-30,61.5,49.9,40.6,35.1,28.9,21.6,72,47,23,30.27,30.11,17,4,20,0.00
2013-10-31,66.6,50.6,37.8,30.7,26.1,21.7,60,40,23,30.38,30.07,9,2,11,0.00
2013-11-1,72.3,55.6,41.9,29.3,24.4,19.9,47,32,18,30.24,30.09,12,3,12,0.00
2013-11-2,76.3,60.9,47.1,28.0,20.8,13.8,38,23,10,30.16,29.86,19,4,21,0.00
2013-11-3,71.2,59.1,48.6,33.6,25.1,17.2,39,27,21,29.87,29.72,20,5,22,0.00
2013-11-4,67.1,54.4,42.8,36.3,28.1,23.2,56,37,27,29.86,29.73,27,4,28,0.00
2013-11-5,63.5,49.8,39.7,37.0,27.2,11.8,70,44,23,30.28,29.85,15,3,16,0.00
2013-11-6,70.3,50.7,36.9,11.7,4.2,-3.8,30,16,6,30.41,30.28,10,4,10,0.00
2013-11-7,73.4,57.0,45.0,16.3,9.6,-2.0,23,16,8,30.37,30.12,10,3,11,0.00
2013-11-8,71.6,56.3,43.3,27.0,19.7,8.8,37,24,17,30.16,30.00,16,3,16,0.00
2013-11-9,73.6,57.4,45.0,31.3,27.9,25.0,48,33,19,30.17,30.06,9,2,10,0.00
2013-11-10,71.4,57.6,45.5,37.0,30.7,27.3,52,37,22,30.22,30.11,7,2,8,0.00
2013-11-11,79.2,62.3,48.7,35.1,26.3,19.0,48,28,13,30.20,30.08,10,3,12,0.00
2013-11-12,79.5,64.1,55.0,28.0,21.0,16.7,25,20,11,30.28,30.13,10,3,12,0.00
2013-11-13,75.9,61.2,51.6,39.0,34.0,21.6,52,37,23,30.21,29.99,9,2,12,0.00
2013-11-14,73.2,58.8,46.0,37.8,33.4,25.0,68,41,17,30.06,29.81,20,4,22,0.00
2013-11-15,65.5,54.4,45.5,44.6,38.6,27.7,90,57,38,29.81,29.57,25,6,34,0.71
2013-11-16,59.0,49.7,43.9,45.7,42.4,38.5,96,77,56,29.94,29.69,24,4,25,0.02
2013-11-17,62.1,50.1,43.7,44.8,40.2,37.4,86,70,44,30.15,29.94,14,3,16,0.02
2013-11-18,67.5,53.2,42.1,43.2,39.1,35.6,80,60,39,30.21,30.05,13,2,15,0.00
2013-11-19,65.8,53.3,42.6,44.2,40.4,36.9,81,63,44,30.06,29.87,21,4,24,0.00
2013-11-20,54.7,50.2,46.8,48.0,43.6,39.9,86,78,68,29.92,29.83,12,2,15,0.01
2013-11-21,54.5,49.9,44.4,46.4,43.7,40.5,93,80,69,30.00,29.90,14,3,16,0.24
2013-11-22,46.6,44.4,42.6,45.5,43.1,40.8,97,95,92,30.04,29.91,15,2,15,1.14
2013-11-23,45.3,41.2,37.9,44.1,39.8,36.3,100,95,90,30.17,30.02,14,3,18,0.78
2013-11-24,42.1,38.2,35.1,40.5,36.8,32.9,97,95,90,30.28,30.16,8,2,8,0.78
2013-11-25,58.6,42.7,32.5,43.0,35.2,29.5,98,77,47,30.36,30.25,7,2,8,0.00
2013-11-26,61.9,46.8,36.0,37.0,31.2,26.8,75,57,29,30.40,30.27,10,2,11,0.00
2013-11-27,57.7,46.5,39.2,33.1,29.3,24.8,72,53,31,30.32,30.10,15,0,15,0.00
2013-11-28,61.0,45.9,35.4,33.3,28.9,25.9,73,53,33,30.22,30.11,9,2,9,0.00
2013-11-29,61.3,47.0,38.7,37.0,32.5,28.0,69,58,39,30.29,30.18,7,2,8,0.00
2013-11-30,61.3,48.8,39.0,39.7,35.2,32.7,79,61,41,30.30,30.15,8,2,9,0.00
2013-12-1,59.4,46.4,38.1,41.2,34.0,29.5,82,63,45,30.35,30.24,8,2,9,0.00
2013-12-2,59.4,46.4,35.6,37.2,31.3,27.9,74,57,37,30.28,29.96,9,2,9,0.00
2013-12-3,58.8,47.1,38.3,37.6,32.6,29.1,77,58,38,29.97,29.69,28,5,33,0.00
2013-12-4,50.5,41.2,30.7,41.4,34.2,27.1,94,77,52,29.95,29.61,25,5,32,0.14
2013-12-5,44.2,32.3,24.8,28.2,20.7,12.6,92,65,36,30.19,29.94,18,3,21,0.01
2013-12-6,41.4,30.1,20.7,17.8,14.1,11.8,70,52,34,30.34,30.19,15,2,16,0.00
2013-12-7,42.1,32.5,21.4,32.2,21.3,13.5,86,64,47,30.24,30.01,30,6,30,0.03
2013-12-8,42.1,35.1,27.7,33.8,28.4,20.5,95,78,56,30.18,29.99,14,3,19,0.17
2013-12-9,40.3,28.7,20.5,21.0,9.4,1.2,83,47,24,30.53,30.11,15,4,19,0.00
2013-12-10,49.5,33.4,22.3,14.9,6.9,0.9,43,33,21,30.53,30.26,9,3,10,0.00
2013-12-11,57.7,39.9,28.6,18.9,11.8,5.5,44,33,17,30.39,30.29,10,3,10,0.00
2013-12-12,59.7,45.5,37.0,37.2,26.5,12.6,84,49,30,30.35,30.09,9,3,10,0.02
2013-12-13,57.4,43.3,34.0,35.2,30.3,18.7,81,61,40,30.20,30.04,11,2,11,0.00
2013-12-14,56.3,42.5,34.5,22.1,18.5,14.0,53,39,23,30.42,30.21,12,3,16,0.00
2013-12-15,65.1,47.2,32.7,27.9,19.8,14.2,50,35,19,30.42,30.27,9,2,10,0.00
2013-12-16,73.4,54.2,44.2,28.6,20.9,15.6,36,28,12,30.30,30.16,9,2,9,0.00
2013-12-17,72.3,54.6,45.7,28.2,22.6,18.1,36,29,15,30.27,30.10,10,4,11,0.00
2013-12-18,60.1,50.0,42.4,33.4,25.7,20.7,46,39,25,30.11,29.78,6,1,6,0.00
2013-12-19,55.8,46.4,37.4,38.7,30.5,25.9,94,57,34,29.78,29.61,31,6,32,0.38
2013-12-20,43.0,37.8,33.4,41.5,36.3,31.6,97,94,91,29.82,29.66,13,2,14,0.51
2013-12-21,41.5,36.3,33.3,38.7,34.6,31.8,96,94,85,30.08,29.78,9,2,11,0.06
2013-12-22,50.4,37.4,30.0,38.1,31.6,25.7,95,81,50,30.37,30.08,8,2,9,0.01
2013-12-23,59.0,43.0,34.3,30.6,25.3,22.5,68,51,27,30.47,30.35,10,3,10,0.00
2013-12-24,58.6,45.3,36.1,32.9,26.5,21.6,57,48,33,30.35,30.15,11,3,11,0.00
2013-12-25,59.4,45.9,35.4,26.6,15.7,5.5,53,32,12,30.37,30.25,14,4,15,0.00
2013-12-26,61.2,46.5,35.8,23.7,14.3,7.3,39,28,20,30.35,30.19,11,0,14,0.00
2013-12-27,65.7,49.7,39.6,25.7,16.9,5.0,41,28,18,30.29,30.11,9,3,10,0.00
2013-12-28,52.9,43.4,36.1,29.5,22.6,17.4,56,44,29,30.15,29.97,7,1,8,0.00
2013-12-29,55.9,43.1,35.1,26.1,19.2,8.6,59,39,25,30.24,29.99,11,3,12,0.00
2013-12-30,58.5,42.4,30.7,21.4,13.1,6.8,39,31,19,30.35,30.23,7,2,8,0.00
2013-12-31,59.7,45.4,35.8,27.7,21.2,15.4,48,38,25,30.31,30.13,8,2,8,0.00
2014-1-1,65.3,47.9,36.5,30.0,23.5,15.4,56,39,23,30.21,30.11,11,3,12,0.00
2014-1-2,63.3,49.7,39.9,25.9,15.6,4.1,38,26,16,30.25,30.09,10,3,11,0.00